Location: Gradaro
(45.0833°N, 10.8833°E)
Time: 10:25:46
(UTC+00:00)

FENGYUN 1C DEB - Pass Details

Date: 24 June 2021
Orbit: 803 x 830 km, 98.8° (Epoch: 28 July)

Event Time Altitude Azimuth Distance (km) Brightness Sun altitude
Exits shadow 19:57:57 - 107° (ESE) 2,753 ? -7.6°
Reaches altitude 10° 19:59:15 10° 97° (E) 2,395 ? -7.8°
Maximum altitude 20:02:36 17° 58° (ENE) 1,938 ? -8.2°
Drops below altitude 10° 20:05:58 10° 18° (NNE) 2,415 ? -8.6°
Sets 20:09:04 0° 360° (N) 3,357 ? -9.0°
